Regional Weather Roundup
Issued by NWS Mobile, AL

Home | Current Version | Previous Version | Text Only | Print | Product List | Glossary On
Versions: 1 2 3 4 5 6 7 8 9 10 11 12 13 14 15 16 17 18 19 20 21 22 23 24 25 26 27 28 29 30 31 32 33 34 35 36 37 38 39 40 41 42 43 44 45 46 47 48 49 50
000
ASUS44 KMOB 230710
RWRMOB
REGIONAL WEATHER ROUNDUP
NATIONAL WEATHER SERVICE MOBILE AL
200 AM CDT TUE SEP 23 2014

NOTE: "FAIR" INDICATES FEW OR NO CLOUDS BELOW 12,000 FEET WITH NO
      SIGNIFICANT WEATHER AND/OR OBSTRUCTIONS TO VISIBILITY.

  * THESE STATIONS ARE PART OF THE UNIVERSITY OF SOUTH ALABAMA
    MESONET AND ARE NOT UNDER NWS OR FAA QUALITY CONTROL.

ALZ061>064-230800-
COASTAL ALABAMA

CITY           SKY/WX    TMP DP  RH WIND       PRES   REMARKS
MOBILE REG APT CLEAR     63  54  72 N8        30.07S
BROOKLEY FIELD CLEAR     68  58  70 N8        30.07S
USA CAMPUS*      N/A     63  55  77 CALM      30.07S
DOG RIVER*     NOT AVBL


CITY           SKY/WX    TMP DP  RH WIND       PRES   REMARKS
MOUNT VERNON*    N/A     55  54  94 NW5       30.08S
SARALAND*      NOT AVBL
BAY MINETTE*   NOT AVBL
LOXLEY*          N/A     59  55  88 VRB3      30.07R
ROBERTSDALE*     N/A     59  57  94 NE3       30.06R
FAIRHOPE*        N/A     63  57  82 NE5       30.05S
ELBERTA*         N/A     64  50  59 VRB2      30.04S
FOLEY*         NOT AVBL
GRAND BAY*       N/A     63  55  77 NE3       30.04S
DAUPHIN ISLND* NOT AVBL
BON SCOUR NWR* NOT AVBL
GULF SHORES    CLEAR     63  61  92 CALM      30.05R

$$

ALZ051>060-230800-
INTERIOR SOUTHWEST AND SOUTH CENTRAL ALABAMA

CITY           SKY/WX    TMP DP  RH WIND       PRES   REMARKS
GREENVILLE     CLEAR     61  53  75 N3        30.08S
EVERGREEN      CLEAR     58  55  90 N5        30.08S
CASTLEBERRY*   NOT AVBL
ATMORE*          N/A     59  55  88 SW6       30.08S
DIXIE*         NOT AVBL
ANDALUSIA/OPP  CLEAR     66  55  67 NE6       30.05F
ANDALUSIA*     NOT AVBL
FLORALA APT    CLEAR     62  58  86 CALM      30.07R
FLORALA*         N/A     61  59  94 N2        30.03

$$

FLZ001>006-230800-
WESTERN FLORIDA PANHANDLE

CITY           SKY/WX    TMP DP  RH WIND       PRES   REMARKS
PENSACOLA      CLEAR     67  58  72 N8        30.04S
NAS PENSACOLA  CLEAR     66  64  93 N6        30.03S
MILTON         CLEAR     62  55  77 N3        30.05S
WHTNG S FIELD  CLEAR     66  56  70 N8        30.05S


CITY           SKY/WX    TMP DP  RH WIND       PRES   REMARKS
WALNUT HILL*   NOT AVBL
JAY*           NOT AVBL
DUKE FIELD     FOG       63  63 100 N2        30.04S VSB 1/4
CRESTVIEW      CLEAR     62  60  93 NE3       30.06R
VALPARAISO     CLEAR     66  64  95 N6        30.03S
DESTIN         CLEAR     71  66  84 NE7       30.03S

$$

MSZ076-079-230800-
INTERIOR SOUTHEAST MISSISSIPPI

CITY           SKY/WX    TMP DP  RH WIND       PRES   REMARKS
LEAKESVILLE*   NOT AVBL
AGRICOLA*      NOT AVBL

$$

MARINE OBSERVATIONS

STATION/POSITION TIME  TEMP    WIND        PRES    WAVE
                       AIR SEA DIR/SP/G            HT/PER
                 (UTC) (F)     (DEG/KT/KT) (MB)    (FT/S)
PASCAGOULA       0700   69      30/  8/ 11 1017.4R
PETIT BOIS ISLND 0700   75      30/ 17/ 22 1017.4R
GRAND BAY        0600   67      10/  6     1018.0S
KATRINA CUT      0600   76      40/ 11     1017.6S
CEDAR POINT      0500   77      50/ 11     1017.6S
E DAUPHIN ISLAND 0700   76      50/ 15/ 17 1017.3R
MIDDLE BAY LIGHT 0600   74      40/ 20     1017.3R
USCG MOBILE BAY  0700      85              1016.8S
STATE DOCKS      0700   69 86              1017.7S
MEAHER PARK      0600   67      10/  2     1018.0S
WEEKS BAY        0600   65                   N/A
FORT MORGAN      0700   74      90/ 11/ 15 1016.8R
12 S ORANGE BCH  0700   78 85   40/ 16/ 17 1016.8R   3/ 4
PENSACOLA BAY    0700   71 84   20/  5/ 10 1017.3F
64 S DAUPHIN ISL 0606   81 83   70/ 19/ 23 1016.4R   5/ 5
67 S FORT MORGAN 0600   80                 1015.6S

$$

SELECTED LOCATIONS ACROSS THE REGION

CITY           SKY/WX    TMP DP  RH WIND       PRES   REMARKS
NEW ORLEANS    PTCLDY    74  57  55 NE17G25   30.05R
GULFPORT       CLEAR     67  53  61 N7        30.05S
PASCAGOULA AP  CLEAR     61  55  81 NE5       30.06R
PASCAGOULA*    NOT AVBL
HATTIESBURG    CLEAR     64  54  69 N3        30.10F
LAUREL         CLEAR    N/A N/A N/A N8        30.11S
MERIDIAN       CLEAR     58  52  80 N6        30.13R
JACKSON        CLEAR     65  52  62 NE9       30.12F
MONTGOMERY     CLEAR     61  53  75 N3        30.08F
TROY           CLEAR     56  54  93 CALM      30.07F
KINSTON*       NOT AVBL
GENEVA*          N/A     63  59  88 NE3       30.07
ASHFORD*       NOT AVBL
DOTHAN         CLEAR     62  60  93 NE8       30.09R
PANAMA CITY    MOCLDY    68  65  90 N5        30.02S

$$



USA.gov is the U.S. government's official web portal to all federal, state and local government web resources and services.